Location: Finkenbach
(49.5340°N, 8.9188°E)
Time: 16:17:52
(UTC+00:00)

Cosmos 1908 Rocket - Pass Details

Date: 17 June 2025
Orbit: 601 x 624 km, 82.5° (Epoch: 19 July)

Event Time Altitude Azimuth Distance (km) Brightness Sun altitude
Rises 22:42:21 0° 348° (NNW) 2,884 8.8 -16.4°
Reaches altitude 10° 22:44:34 10° 347° (NNW) 1,978 7.5 -16.5°
Maximum altitude 22:48:56 75° 263° (W) 640 3.6 -16.6°
Enters shadow 22:50:56 32° 183° (S) 1,069 4.2 -16.7°
